Regional Weather Roundup
Issued by NWS

Home | Current Version | Previous Version | Text Only | Print | Product List | Glossary On
Versions: 1 2 3 4 5 6 7 8 9 10 11 12 13 14 15 16 17 18 19 20 21 22 23 24 25 26 27 28 29 30 31 32 33 34 35 36 37 38 39 40 41 42 43 44 45 46 47 48 49 50
000
ASPQ40 PGUM 192212
RWRPQ
WEATHER ROUNDUP FOR THE MARIANAS AND MICRONESIA
NATIONAL WEATHER SERVICE TIYAN GU
800 AM CHST SAT SEP 20 2014

GUZ001>004-192300-
MARIANA ISLANDS-

CITY           SKY/WX    TMP DP  RH WIND       PRES   REMARKS
GUAM AIRPORT   MOSUNNY   82  75  78 NE9       29.85R
ANDERSEN AFB   SUNNY     82  77  83 E9        29.86R HX  91
ROTA AIRPORT   PTSUNNY   82  79  89 E8        29.85R HX  93
TINIAN AP      PTSUNNY   84  79  84 NE10      29.83R HX  96
SAIPAN AP      MOSUNNY   84  79  84 E14       29.84R HX  96

$$

PMZ161-192300-
REPUBLIC OF PALAU-

CITY           SKY/WX    TMP DP  RH WIND       PRES   REMARKS
KOROR AP       CLOUDY    77  73  88 CALM      29.83S
KOROR WSO      CLOUDY    77  73  88 CALM      29.86R

$$

PMZ171>174-192300-
FEDERATED STATES OF MICRONESIA-

CITY           SKY/WX    TMP DP  RH WIND       PRES   REMARKS
YAP AIRPORT    CLOUDY    82  75  78 NE10      29.82R
CHUUK AP       CLOUDY    86  81  84 VRB3      29.81R HX 102
POHNPEI AP     MOSUNNY   84  79  84 SW2       29.81  HX  96
POHNPEI WSO    SUNNY     84  77  79 E3        29.85R HX  94
KOSRAE AP      NOT AVBL

$$

PMZ181-192300-
REPUBLIC OF THE MARSHALL ISLANDS-

CITY           SKY/WX    TMP DP  RH WIND       PRES   REMARKS
KWAJALEIN AP   SUNNY     88  75  66 SE5       29.83R HX  97
MAJURO AP      PTSUNNY   88  75  66 NE7       29.80R HX  97
MAJURO WSO     NOT AVBL

$$



USA.gov is the U.S. government's official web portal to all federal, state and local government web resources and services.